Starlink 33848

operational
NORAD ID: 63705 Int'l Des: 2025-087 Owner: SPXS Country: US Constellation: starlink
LEOCIRCULAR

About Starlink 33848

Description loading...

Live Position

Loading 3D Globe...

Upcoming Passes

Altitude History

Altitude vs Time

uPlot chart will show altitude changes over time

Two-Line Element Set

1 63705U 25087J 25352.90732225 .00019442 00000-0 66667-3 0 9994
2 63705 53.1578 234.6284 0001271 83.8844 276.2302 15.30207887 36829
Epoch: Dec 18, 2025 • Age: 6 hours

Current Status

Altitude 488.1 km
Velocity 7.62 km/s
Sub-Earth Point -37.95°S, 52.5°E
Launch Date Apr 28, 2025
Age 0.6 years
Type internet

Technical Details

Classification Payload
Mass 575.00 kg
Dry Mass 530.00 kg
Total Mass 575.00 kg
Length 0.30 m
Diameter 4.10 m
Span 29.00 m
Shape Box + pan
Manufacturer SPXS
Bus Type Starlink V2MO
Phase Status In Orbit
Owner/State SPXS/US

Large Constellations

Loading constellations...